Regional Weather Roundup
Issued by NWS

Home | Current Version | Previous Version | Text Only | Print | Product List | Glossary Off
Versions: 1 2 3 4 5 6 7 8 9 10 11 12 13 14 15 16 17 18 19 20 21 22 23 24 25 26 27 28 29 30 31 32 33 34 35 36 37 38 39 40 41 42 43 44 45 46 47 48 49 50

000
ASUS43 KFSD 221302
RWRSD

WEATHER ROUNDUP FOR SOUTH DAKOTA
NATIONAL WEATHER SERVICE SIOUX FALLS SD
700 AM CST WED FEB 22 2017

NOTE: "FAIR" INDICATES FEW OR NO CLOUDS BELOW 12,000 FEET WITH NO
SIGNIFICANT WEATHER AND/OR OBSTRUCTIONS TO VISIBILITY.


SDZ001>005-009-010-012>017-221400-
NORTHWEST AND NORTH CENTRAL SOUTH DAKOTA

CITY           SKY/WX    TMP DP  RH WIND       PRES   REMARKS
BUFFALO          N/A     37  34  89 W8        29.62F
FAITH            N/A     37  35  92 N9        29.66R
MOBRIDGE       CLOUDY    38  33  82 N12       29.61S
$$

SDZ012>016-024>037-041>051-057-063-072>074-221400-
SOUTHWEST AND SOUTH CENTRAL SOUTH DAKOTA

CITY           SKY/WX    TMP DP  RH WIND       PRES   REMARKS
RAPID CTY ARPT CLOUDY    46  32  58 W17       29.70S
PIERRE         CLOUDY    47  37  68 W13       29.64R
CUSTER         CLOUDY    35  23  61 W12G20    29.76R WCI  27
ELLSWORTH AFB  CLOUDY    46  32  58 W13       29.70R
PHILIP         CLOUDY    43  37  79 NW8       29.67R
PINE RIDGE     MOCLDY    42  34  73 NW3       29.76S
SPEARFISH      CLOUDY    45  30  57 SW12G18   29.73R
WINNER         FAIR      45  36  70 SW12      29.68R
$$

SDZ004>011-016>023-039-040-221400-
NORTHEAST SOUTH DAKOTA

CITY           SKY/WX    TMP DP  RH WIND       PRES   REMARKS
ABERDEEN       MOCLDY    36  32  85 NE8       29.63F
WATERTOWN      MOCLDY    44  39  82 S7G18     29.59F
BROOKINGS      FAIR      40  36  86 NW10      29.63R
SISSETON         N/A     37  36  96 N9        29.63R
$$

SDZ017-020-022-023-036>040-048>070-221400-
SOUTHEAST SOUTH DAKOTA

CITY           SKY/WX    TMP DP  RH WIND       PRES   REMARKS
SIOUX FALLS    MOCLDY    37  34  89 W6        29.61S
HURON          CLOUDY    44  41  89 SE3       29.59F
CHAMBERLAIN    PTCLDY    40  37  90 NW25G32   29.68R
MITCHELL       MOCLDY    48  39  71 W8        29.62F
YANKTON        FAIR      41  32  70 NW15      29.63R
$$

ABBREVIATIONS USED IN REMARKS
   TC - TEMPERATURE IN CELSIUS
  WCI - WIND CHILL INDEX
   HX - HEAT INDEX
  VSB - VISIBILITY





USA.gov is the U.S. government's official web portal to all federal, state and local government web resources and services.